EW5444 Fucecchio IT current weather conditions

sailwx.info

Wind from 006

Air temperature 11.7° C
Dewpoint 10.6° C

Last reported at 2019-Dec-15 19:51 UTC.
Time now 2019-Dec-15 20:22 UTC

Location: N 43°44' E 010°48'.
View on Google Maps.

See reports from other nearby stations

  
Tides and Currents Weather Stations Pressure Air Temp Water Temp Dewpoint Dewpoint Depression Visibility Wind Speed Wind Dir Waves Ship Positions
date/time (UTC)wind fromknots sea level pressurealtimeterstation pressurevisibilityair tempwater tempwave heightnotes
2019-Dec-15 19:51 006 11.7
2019-Dec-15 19:41 140 12.2
2019-Dec-15 19:31 139 12.8
2019-Dec-15 19:21 139 13.3
2019-Dec-15 19:11 138 0 gusting 0 12.8
2019-Dec-15 19:01 121 12.8
2019-Dec-15 18:51 124 12.8
2019-Dec-15 18:41 123 12.8
2019-Dec-15 18:31 122 12.8
2019-Dec-15 18:21 124 12.8
2019-Dec-15 18:11 115 12.8
2019-Dec-15 18:01 231 12.2
2019-Dec-15 17:51 232 12.8
2019-Dec-15 17:41 232 12.8
2019-Dec-15 17:31 232 12.8
2019-Dec-15 17:21 222 12.8
2019-Dec-15 17:11 246 13.3
2019-Dec-15 17:01 277 1 gusting 2 13.3
2019-Dec-15 16:51 276 1 gusting 2 12.8
2019-Dec-15 16:41 301 1 gusting 2 13.3
2019-Dec-15 16:31 160 13.9
2019-Dec-15 16:21 211 13.9
2019-Dec-15 16:11 135 14.4
2019-Dec-15 16:01 136 15.0
2019-Dec-15 15:51 101 15.6
2019-Dec-15 15:41 101 15.6
2019-Dec-15 15:31 101 15.6
2019-Dec-15 15:21 101 15.6
2019-Dec-15 15:11 096 15.6
2019-Dec-15 15:01 111 16.1
2019-Dec-15 14:51 294 16.7
2019-Dec-15 14:41 294 16.7
2019-Dec-15 14:31 294 16.7
2019-Dec-15 14:21 294 17.8
2019-Dec-15 14:11 294 17.8
2019-Dec-15 14:01 295 0 gusting 1 16.7
2019-Dec-15 13:51 293 16.7
2019-Dec-15 13:41 286 16.1
2019-Dec-15 13:31 276 0 gusting 3 15.6
2019-Dec-15 13:21 312 16.1
2019-Dec-15 13:11 305 0 gusting 5 16.1
2019-Dec-15 13:01 352 1 gusting 2 16.7
2019-Dec-15 12:51 351 16.7
2019-Dec-15 12:41 336 2 gusting 2 16.7
2019-Dec-15 12:31 271 16.7
2019-Dec-15 12:21 280 16.7
2019-Dec-15 12:11 286 16.7
2019-Dec-15 12:01 288 16.7
2019-Dec-15 11:51 262 16.7
2019-Dec-15 11:41 264 0 gusting 2 16.7
2019-Dec-15 11:31 166 16.7
2019-Dec-15 11:21 204 16.7
2019-Dec-15 11:11 221 16.1
2019-Dec-15 11:01 117 15.6
2019-Dec-15 10:51 122 15.6
2019-Dec-15 10:41 156 15.0
2019-Dec-15 10:31 060 14.4
2019-Dec-15 10:21 089 13.9
2019-Dec-15 10:11 001 13.3
2019-Dec-15 10:01 191 12.8
2019-Dec-15 09:51 190 12.8
2019-Dec-15 09:41 192 12.2
2019-Dec-15 09:31 124 11.7
2019-Dec-15 09:21 139 11.7
2019-Dec-15 09:11 139 11.1
2019-Dec-15 09:01 064 11.1
2019-Dec-15 08:51 100 10.6
2019-Dec-15 08:41 096 10.0
2019-Dec-15 08:31 035 1 gusting 2 9.4
2019-Dec-15 08:21 039 9.4
2019-Dec-15 08:11 084 8.9
2019-Dec-15 08:01 067 8.9
2019-Dec-15 07:51 018 8.9
2019-Dec-15 07:41 113 8.9
2019-Dec-15 07:31 005 8.3
2019-Dec-15 07:21 332 8.3
2019-Dec-15 07:11 115 8.3
2019-Dec-15 07:01 057 8.3
2019-Dec-15 06:51 058 8.3
2019-Dec-15 06:41 091 0 gusting 0 8.3
2019-Dec-15 06:31 113 8.3
2019-Dec-15 06:21 110 0 gusting 2 8.3
2019-Dec-15 06:11 352 8.3
2019-Dec-15 06:01 036 0 gusting 1 8.3
2019-Dec-15 05:51 039 0 gusting 2 8.3
2019-Dec-15 05:41 032 1 gusting 2 8.3
2019-Dec-15 05:31 093 0 gusting 3 8.3
2019-Dec-15 05:21 118 8.3
2019-Dec-15 05:11 149 1 gusting 3 8.3
2019-Dec-15 05:01 195 8.3
2019-Dec-15 04:51 153 0 gusting 3 7.8
2019-Dec-15 04:42 167 3 gusting 4 7.8
2019-Dec-15 04:31 135 2 gusting 3 7.8
2019-Dec-15 04:21 153 1 gusting 3 7.8
2019-Dec-15 04:11 169 2 gusting 3 7.8
2019-Dec-15 04:01 283 7.8
2019-Dec-15 03:51 281 7.8
2019-Dec-15 03:41 148 1 gusting 3 7.8
2019-Dec-15 03:31 150 7.8
2019-Dec-15 03:21 158 2 gusting 4 7.8
2019-Dec-15 03:11 246 1 gusting 1 7.8
2019-Dec-15 03:01 107 7.8
2019-Dec-15 02:51 136 7.8
2019-Dec-15 02:41 059 7.8
2019-Dec-15 02:31 079 7.8
2019-Dec-15 02:21 290 7.8
2019-Dec-15 02:11 336 1 gusting 2 7.8
2019-Dec-15 02:01 359 0 gusting 0 7.8
2019-Dec-15 01:51 132 7.8
2019-Dec-15 01:41 132 7.8
2019-Dec-15 01:31 065 7.8
2019-Dec-15 01:21 096 7.8
2019-Dec-15 01:11 054 7.8
2019-Dec-15 01:01 023 7.8
2019-Dec-15 00:51 255 7.8
2019-Dec-15 00:41 255 7.8
2019-Dec-15 00:31 188 7.8
2019-Dec-15 00:21 175 1 gusting 2 7.8
2019-Dec-15 00:11 148 7.8
2019-Dec-15 00:01 131 7.8
2019-Dec-14 23:51 279 7.8
2019-Dec-14 23:41 129 1 gusting 2 7.8
2019-Dec-14 23:31 139 7.8
2019-Dec-14 23:21 222 0 gusting 0 7.8
2019-Dec-14 23:11 304 7.8
2019-Dec-14 23:02 193 1 gusting 1 7.8
2019-Dec-14 22:51 160 7.8
2019-Dec-14 22:41 147 7.8
2019-Dec-14 21:39 022 7.8
2019-Dec-14 20:49 239 8.3
2019-Dec-14 19:49 119 0 gusting 1 8.3
2019-Dec-14 18:49 345 2 gusting 2 7.8
2019-Dec-14 18:39 036 7.8
2019-Dec-14 18:09 040 7.8
2019-Dec-14 17:59 039 7.8
2019-Dec-14 16:59 355 0 gusting 1 8.3
2019-Dec-14 16:49 108 8.3
2019-Dec-14 16:39 167 8.3
2019-Dec-14 15:49 083 8.3
2019-Dec-14 15:29 082 0 gusting 1 8.3
2019-Dec-14 14:29 043 2 gusting 3 8.9
2019-Dec-14 13:19 118 8.3
2019-Dec-14 12:49 101 7.8
2019-Dec-14 12:39 084 0 gusting 1 7.2
2019-Dec-14 11:39 257 7.2
2019-Dec-14 11:29 257 6.7
2019-Dec-14 11:19 280 6.7
2019-Dec-14 11:09 122 6.7
2019-Dec-14 10:59 122 6.7
2019-Dec-14 10:49 121 6.1
2019-Dec-14 10:39 123 5.6
2019-Dec-14 10:29 136 5.6
2019-Dec-14 10:19 026 5.6
2019-Dec-14 10:09 031 5.6
2019-Dec-14 09:59 037 5.6
2019-Dec-14 09:49 256 5.0
2019-Dec-14 09:39 277 5.0
2019-Dec-14 09:29 046 4.4
2019-Dec-14 09:19 098 4.4
2019-Dec-14 08:49 067 3.3
2019-Dec-14 08:39 093 2.8
2019-Dec-14 08:29 103 2.2
2019-Dec-14 08:19 065 1.7
2019-Dec-14 08:09 019 1.1
2019-Dec-14 07:59 018 -0.0
2019-Dec-14 07:49 008 -0.0
2019-Dec-14 07:39 285 -0.6
2019-Dec-14 07:29 025 -0.0
2019-Dec-14 07:19 025 -0.6
2019-Dec-14 07:09 025 -0.0
2019-Dec-14 06:59 058 -0.6
2019-Dec-14 06:49 058 -0.6
2019-Dec-14 06:39 233 -0.6
2019-Dec-14 06:29 049 0 gusting 3 -0.6
2019-Dec-14 06:19 075 -0.6
2019-Dec-14 06:09 054 2 gusting 3 -0.6
2019-Dec-14 05:59 101 -0.6
2019-Dec-14 05:49 101 -0.6
2019-Dec-14 05:39 072 1 gusting 3 -1.1
2019-Dec-14 05:29 051 3 gusting 3 -1.1
2019-Dec-14 05:19 063 2 gusting 2 -1.1
2019-Dec-14 05:09 030 0 gusting 1 -0.6
2019-Dec-14 04:59 337 1 gusting 2 -0.6
2019-Dec-14 04:49 231 -0.6
2019-Dec-14 04:39 249 -0.0
2019-Dec-14 04:29 097 0 gusting 3 -0.6
2019-Dec-14 04:19 089 -0.6
2019-Dec-14 04:09 092 -0.6
2019-Dec-14 03:59 098 0 gusting 2 -0.6
2019-Dec-14 03:49 075 -0.6
2019-Dec-14 03:39 298 -0.6
2019-Dec-14 03:29 339 3 gusting 5 -0.6
2019-Dec-14 03:19 008 0.6
2019-Dec-14 03:09 131 1.1
2019-Dec-14 02:59 122 1.1
2019-Dec-14 02:49 072 3 gusting 5 0.6
2019-Dec-14 02:39 233 0 gusting 2 -0.0
2019-Dec-14 02:29 240 1 gusting 1 -0.0
2019-Dec-14 02:19 074 -0.0
2019-Dec-14 02:09 044 1 gusting 1 -0.0
2019-Dec-14 01:59 337 0 gusting 2 -0.0
2019-Dec-14 01:49 274 0 gusting 1 0.6
2019-Dec-14 01:39 116 0 gusting 3 0.6
2019-Dec-14 01:29 064 0 gusting 2 0.6
2019-Dec-14 01:19 139 0.6
2019-Dec-14 01:09 046 1 gusting 1 1.1
2019-Dec-14 00:59 046 1.1
2019-Dec-14 00:49 076 1.7
2019-Dec-14 00:39 290 0 gusting 1 2.2
2019-Dec-14 00:29 118 1 gusting 5 2.2
2019-Dec-14 00:19 118 2 gusting 5 2.2
2019-Dec-14 00:09 117 4 gusting 6 2.2
2019-Dec-13 23:59 156 2 gusting 3 2.2
2019-Dec-13 23:49 138 3 gusting 4 2.2
2019-Dec-13 23:39 205 1 gusting 4 2.2
2019-Dec-13 23:29 114 3 gusting 4 1.7
2019-Dec-13 23:19 176 1 gusting 2 1.7
2019-Dec-13 23:09 113 2 gusting 6 1.7
2019-Dec-13 22:59 071 0 gusting 2 1.7
2019-Dec-13 22:49 280 1.7
2019-Dec-13 22:39 270 1.7
2019-Dec-13 22:29 162 1 gusting 2 1.7
2019-Dec-13 22:19 145 1.7
2019-Dec-13 22:09 295 1.7
2019-Dec-13 21:59 326 1.7
2019-Dec-13 21:49 338 2.2
2019-Dec-13 21:39 112 2 gusting 4 2.2
2019-Dec-13 21:29 148 2 gusting 4 2.2
2019-Dec-13 21:19 084 2.2
2019-Dec-13 21:09 148 1 gusting 2 2.2
2019-Dec-13 20:59 269 0 gusting 0 2.2
2019-Dec-13 20:49 038 2.8
2019-Dec-13 20:39 033 2.8
2019-Dec-13 20:29 138 3.3
2019-Dec-13 20:19 150 3 gusting 5 3.3
2019-Dec-13 20:09 145 4.4